Time_in_sec,Latitude,Longitude,Altitude,Nbsat_max_qualitysignal,Nbsat_locked,valid_data
1314363976.21248126,0.00006203,0.00005857,-14816.16601562,0,0,0
1314364069.41360378,0.00006043,0.00005825,-17285.51757812,0,0,0
1314364069.47275877,0.00006043,0.00005831,-17286.86718750,0,0,0
1314364069.51254392,0.00006043,0.00005831,-17288.48828125,0,0,0
1314364069.56116438,0.00006043,0.00005831,-17289.56835938,0,0,0
1314364069.62147212,0.00006043,0.00005825,-17290.91796875,0,0,0
1314364069.66148472,0.00006043,0.00005825,-17292.53906250,0,0,0
1314364069.71278429,0.00006043,0.00005825,-17293.62109375,0,0,0
1314364069.76055336,0.00006043,0.00005831,-17294.97070312,0,0,0
1314364069.82150364,0.00006042,0.00005825,-17296.32226562,0,0,0
1314364069.87289453,0.00006042,0.00005825,-17297.94140625,0,0,0
1314364069.92151308,0.00006042,0.00005831,-17299.29296875,0,0,0
1314364069.96146059,0.00006042,0.00005825,-17300.64453125,0,0,0
1314364070.02051568,0.00006042,0.00005825,-17301.72460938,0,0,0
1314364070.06177664,0.00006042,0.00005825,-17303.34570312,0,0,0
1314364070.11344266,0.00006042,0.00005825,-17304.42578125,0,0,0
1314364070.16058993,0.00006042,0.00005831,-17305.77734375,0,0,0
1314364070.22181535,0.00006041,0.00005825,-17307.12695312,0,0,0
1314364070.27319431,0.00006041,0.00005825,-17308.74804688,0,0,0
1314364070.32051277,0.00006041,0.00005831,-17310.09960938,0,0,0
1314364070.37346816,0.00006041,0.00005825,-17311.45117188,0,0,0
1314364070.42061877,0.00006041,0.00005831,-17312.80078125,0,0,0
1314364070.46119452,0.00006041,0.00005825,-17314.15234375,0,0,0
1314364070.51345038,0.00006041,0.00005825,-17315.23437500,0,0,0
1314364070.56112456,0.00006040,0.00005831,-17316.58398438,0,0,0
1314364070.62147689,0.00006040,0.00005825,-17317.93554688,0,0,0
1314364070.67346501,0.00006040,0.00005825,-17319.55664062,0,0,0
1314364070.71359825,0.00006040,0.00005831,-17320.90820312,0,0,0
1314364070.77344298,0.00006040,0.00005831,-17321.98828125,0,0,0
1314364070.82114935,0.00006040,0.00005831,-17323.60937500,0,0,0
1314364070.86154008,0.00006040,0.00005825,-17324.96093750,0,0,0
1314364070.92147303,0.00006039,0.00005825,-17326.04296875,0,0,0
1314364070.96114063,0.00006039,0.00005825,-17327.66406250,0,0,0
1314364071.01347756,0.00006039,0.00005825,-17328.74609375,0,0,0
1314364071.07252240,0.00006039,0.00005831,-17330.09570312,0,0,0
1314364071.11645222,0.00006039,0.00005831,-17331.71875000,0,0,0
1314364071.16144633,0.00006039,0.00005831,-17332.79882812,0,0,0
1314364071.22046876,0.00006039,0.00005825,-17334.15039062,0,0,0
1314364071.26111364,0.00006038,0.00005825,-17335.77148438,0,0,0
1314364071.32147312,0.00006038,0.00005825,-17336.85351562,0,0,0
1314364071.36159205,0.00006038,0.00005825,-17338.47460938,0,0,0
1314364071.42147565,0.00006038,0.00005825,-17339.55664062,0,0,0
1314364071.47255898,0.00006038,0.00005825,-17341.17773438,0,0,0
1314364071.51651239,0.00006038,0.00005831,-17342.52929688,0,0,0
1314364071.56150508,0.00006037,0.00005831,-17343.60937500,0,0,0
1314364071.61346221,0.00006038,0.00005825,-17344.96093750,0,0,0
1314364071.66160274,0.00006037,0.00005831,-17346.31250000,0,0,0
1314364071.71385598,0.00006037,0.00005825,-17347.66406250,0,0,0
1314364071.76066208,0.00006037,0.00005831,-17349.01562500,0,0,0
1314364071.82148385,0.00006037,0.00005825,-17350.36914062,0,0,0
1314364071.86149526,0.00006037,0.00005825,-17351.99023438,0,0,0
1314364071.92186570,0.00006037,0.00005825,-17353.07226562,0,0,0
1314364071.96152353,0.00006037,0.00005825,-17354.69335938,0,0,0
1314364072.01346231,0.00006036,0.00005825,-17355.77539062,0,0,0
1314364072.06156611,0.00006036,0.00005831,-17357.12695312,0,0,0
1314364072.11272120,0.00006036,0.00005825,-17358.47851562,0,0,0
1314364072.16062379,0.00006036,0.00005831,-17359.83007812,0,0,0
1314364072.21264982,0.00006036,0.00005825,-17361.18164062,0,0,0
1314364072.27251983,0.00006035,0.00005831,-17362.53320312,0,0,0
1314364072.31249356,0.00006035,0.00005831,-17364.15625000,0,0,0
1314364072.36151934,0.00006035,0.00005831,-17365.23828125,0,0,0
1314364072.41304040,0.00006035,0.00005825,-17366.58984375,0,0,0
1314364072.46237898,0.00006035,0.00005831,-17367.94140625,0,0,0
1314364072.51785350,0.00006035,0.00005825,-17369.29492188,0,0,0
1314364072.56108475,0.00006034,0.00005831,-17370.64648438,0,0,0
1314364072.61246204,0.00006035,0.00005825,-17371.99804688,0,0,0
1314364072.67249489,0.00006034,0.00005831,-17373.34960938,0,0,0
1314364072.72122264,0.00006034,0.00005831,-17374.97265625,0,0,0
1314364072.76193857,0.00006034,0.00005825,-17376.32617188,0,0,0
1314364072.82148552,0.00006034,0.00005824,-17377.40820312,0,0,0
1314364072.86148930,0.00006034,0.00005824,-17379.02929688,0,0,0
1314364072.91345882,0.00006034,0.00005824,-17380.11132812,0,0,0
1314364072.96150827,0.00006033,0.00005831,-17381.46484375,0,0,0
1314364073.02047133,0.00006034,0.00005824,-17382.81640625,0,0,0
1314364073.07311082,0.00006034,0.00005824,-17384.43945312,0,0,0
1314364073.11350965,0.00006033,0.00005830,-17385.79296875,0,0,0
1314364073.17346263,0.00006033,0.00005830,-17386.87500000,0,0,0
1314364073.22164392,0.00006033,0.00005830,-17388.49804688,0,0,0
1314364073.26104331,0.00006033,0.00005824,-17389.84960938,0,0,0
1314364073.32270837,0.00006033,0.00005824,-17390.93164062,0,0,0
1314364073.36060047,0.00006033,0.00005824,-17392.55468750,0,0,0
1314364073.41249633,0.00006033,0.00005824,-17393.63671875,0,0,0
1314364073.46149039,0.00006032,0.00005830,-17394.99023438,0,0,0
1314364073.51248813,0.00006033,0.00005824,-17396.34179688,0,0,0
1314364073.56146026,0.00006032,0.00005830,-17397.69531250,0,0,0
1314364073.61248469,0.00006032,0.00005824,-17399.04882812,0,0,0
1314364073.67304516,0.00006031,0.00005830,-17400.40039062,0,0,0
1314364073.71359277,0.00006031,0.00005830,-17402.02343750,0,0,0
1314364073.77306414,0.00006031,0.00005830,-17403.10546875,0,0,0
1314364073.81361699,0.00006031,0.00005830,-17404.72851562,0,0,0
1314364073.87298012,0.00006031,0.00005830,-17405.81250000,0,0,0
1314364073.92102218,0.00006031,0.00005830,-17407.43554688,0,0,0
1314364073.96147513,0.00006031,0.00005824,-17408.78710938,0,0,0
1314364074.02113295,0.00006031,0.00005824,-17409.87109375,0,0,0
1314364074.07249570,0.00006031,0.00005824,-17411.49414062,0,0,0
1314364074.12148643,0.00006030,0.00005830,-17412.84765625,0,0,0
1314364074.16058350,0.00006031,0.00005824,-17414.19921875,0,0,0
1314364074.21249843,0.00006031,0.00005824,-17415.28320312,0,0,0
1314364074.27305913,0.00006030,0.00005830,-17416.63476562,0,0,0
1314364074.31529784,0.00006029,0.00005830,-17418.25976562,0,0,0
1314364074.36146164,0.00006029,0.00005830,-17419.34179688,0,0,0
1314364074.42058706,0.00006030,0.00005823,-17420.69531250,0,0,0
1314364074.46108389,0.00006030,0.00005823,-17422.31835938,0,0,0
1314364074.51347017,0.00006030,0.00005823,-17423.40234375,0,0,0
1314364074.56233573,0.00006029,0.00005830,-17424.75390625,0,0,0
1314364074.61347342,0.00006030,0.00005823,-17426.10742188,0,0,0
1314364074.67319560,0.00006028,0.00005830,-17427.46093750,0,0,0
1314364074.72060776,0.00006028,0.00005830,-17429.08593750,0,0,0
1314364074.76146245,0.00006029,0.00005823,-17430.43945312,0,0,0
1314364074.82146001,0.00006029,0.00005823,-17431.52148438,0,0,0
1314364074.86059880,0.00006029,0.00005823,-17433.14648438,0,0,0
1314364074.91045856,0.00006029,0.00005823,-17434.22851562,0,0,0
1314364074.96113849,0.00006028,0.00005829,-17435.58203125,0,0,0
1314364075.01271796,0.00006029,0.00005823,-17436.93554688,0,0,0
1314364075.06145692,0.00006027,0.00005829,-17438.28906250,0,0,0
1314364075.12066865,0.00006029,0.00005823,-17439.64257812,0,0,0
1314364075.16148853,0.00006028,0.00005823,-17441.26757812,0,0,0
1314364075.21360612,0.00006028,0.00005823,-17442.34960938,0,0,0
1314364075.26062942,0.00006027,0.00005829,-17443.70312500,0,0,0
1314364075.31345320,0.00006028,0.00005823,-17445.05664062,0,0,0
1314364075.36157084,0.00006027,0.00005829,-17446.41015625,0,0,0
1314364075.41357088,0.00006028,0.00005822,-17447.76367188,0,0,0
1314364075.47348547,0.00006026,0.00005829,-17449.11718750,0,0,0
1314364075.51249003,0.00006026,0.00005829,-17450.74218750,0,0,0
1314364075.56150794,0.00006026,0.00005829,-17451.82617188,0,0,0
1314364075.61362362,0.00006027,0.00005822,-17453.17968750,0,0,0
1314364075.66062927,0.00006026,0.00005829,-17454.53320312,0,0,0
1314364075.71349907,0.00006027,0.00005822,-17455.88671875,0,0,0
1314364075.76095104,0.00006025,0.00005829,-17457.24023438,0,0,0
1314364075.82146668,0.00006027,0.00005822,-17458.59570312,0,0,0
1314364075.87304473,0.00006027,0.00005822,-17460.21875000,0,0,0
1314364075.92047262,0.00006025,0.00005828,-17461.57226562,0,0,0
1314364075.96146727,0.00006027,0.00005822,-17462.92773438,0,0,0
1314364076.02049661,0.00006026,0.00005822,-17464.00976562,0,0,0
1314364076.06046462,0.00006026,0.00005822,-17465.63476562,0,0,0
1314364076.11349106,0.00006026,0.00005822,-17466.71875000,0,0,0
1314364076.16148591,0.00006024,0.00005828,-17468.07226562,0,0,0
1314364076.22144508,0.00006026,0.00005822,-17469.42578125,0,0,0
1314364076.27291775,0.00006026,0.00005822,-17471.05078125,0,0,0
1314364076.31248021,0.00006024,0.00005828,-17472.40429688,0,0,0
1314364076.36150861,0.00006024,0.00005828,-17473.48828125,0,0,0
1314364076.42047930,0.00006025,0.00005821,-17474.84375000,0,0,0
1314364076.46100521,0.00006025,0.00005821,-17476.46875000,0,0,0
1314364076.51420116,0.00006025,0.00005821,-17477.55078125,0,0,0
1314364076.56102872,0.00006023,0.00005828,-17478.90625000,0,0,0
1314364076.61414289,0.00006025,0.00005821,-17480.25976562,0,0,0
1314364076.66047668,0.00006023,0.00005828,-17481.61328125,0,0,0
1314364076.72059536,0.00006025,0.00005821,-17482.96875000,0,0,0
1314364076.77343631,0.00006025,0.00005821,-17484.59375000,0,0,0
1314364076.81345534,0.00006022,0.00005828,-17485.94726562,0,0,0
1314364076.87253141,0.00006022,0.00005828,-17487.03125000,0,0,0
1314364076.91380620,0.00006022,0.00005828,-17488.65625000,0,0,0
1314364076.96163082,0.00006022,0.00005827,-17489.74023438,0,0,0
1314364077.01247191,0.00006024,0.00005821,-17491.09375000,0,0,0
1314364077.07245564,0.00006022,0.00005827,-17492.44921875,0,0,0
1314364077.11273313,0.00006022,0.00005827,-17494.07421875,0,0,0
1314364077.16089272,0.00006021,0.00005827,-17495.15820312,0,0,0
1314364077.21246839,0.00006023,0.00005821,-17496.51171875,0,0,0
1314364077.26056623,0.00006021,0.00005827,-17497.86718750,0,0,0
1314364077.31423998,0.00006023,0.00005820,-17499.22265625,0,0,0
1314364077.36058044,0.00006021,0.00005827,-17500.57617188,0,0,0
1314364077.41359258,0.00006023,0.00005820,-17501.93164062,0,0,0
1314364077.47353983,0.00006021,0.00005827,-17503.28515625,0,0,0
1314364077.51273227,0.00006021,0.00005827,-17504.91210938,0,0,0
1314364077.56146812,0.00006020,0.00005827,-17505.99414062,0,0,0
1314364077.62096334,0.00006023,0.00005820,-17507.34960938,0,0,0
1314364077.66151071,0.00006022,0.00005820,-17508.97656250,0,0,0
1314364077.71346593,0.00006022,0.00005820,-17510.06054688,0,0,0
1314364077.76090527,0.00006020,0.00005826,-17511.41406250,0,0,0
1314364077.81348610,0.00006022,0.00005820,-17512.76953125,0,0,0
1314364077.86086535,0.00006020,0.00005826,-17514.12500000,0,0,0
1314364077.91299772,0.00006022,0.00005820,-17515.47851562,0,0,0
1314364077.96146083,0.00006019,0.00005826,-17516.83398438,0,0,0
1314364078.01262355,0.00006022,0.00005820,-17518.18945312,0,0,0
1314364078.06048083,0.00006019,0.00005826,-17519.54296875,0,0,0
1314364078.12147927,0.00006021,0.00005819,-17520.89843750,0,0,0
1314364078.16160727,0.00006021,0.00005819,-17522.52539062,0,0,0
1314364078.21266460,0.00006021,0.00005819,-17523.60937500,0,0,0
1314364078.26087260,0.00006019,0.00005826,-17524.96484375,0,0,0
1314364078.31298900,0.00006021,0.00005819,-17526.32031250,0,0,0
1314364078.36145782,0.00006018,0.00005826,-17527.67382812,0,0,0
1314364078.41248560,0.00006021,0.00005819,-17529.02929688,0,0,0
1314364078.46098566,0.00006018,0.00005826,-17530.38476562,0,0,0
1314364078.51346707,0.00006020,0.00005819,-17531.74023438,0,0,0
1314364078.56260490,0.00006018,0.00005825,-17533.09570312,0,0,0
1314364078.61252427,0.00006020,0.00005819,-17534.45117188,0,0,0
1314364078.67344093,0.00006018,0.00005825,-17535.80664062,0,0,0
1314364078.72058845,0.00006017,0.00005825,-17537.43164062,0,0,0
1314364078.76150298,0.00006020,0.00005819,-17538.78710938,0,0,0
1314364078.82084727,0.00006020,0.00005819,-17539.87109375,0,0,0
1314364078.86059284,0.00006020,0.00005818,-17541.49804688,0,0,0
1314364078.91348243,0.00006019,0.00005818,-17542.58203125,0,0,0
1314364078.96089602,0.00006017,0.00005825,-17543.93750000,0,0,0
1314364079.02145696,0.00006019,0.00005818,-17545.29296875,0,0,0
1314364079.07352901,0.00006019,0.00005818,-17546.91992188,0,0,0
1314364079.12062025,0.00006016,0.00005825,-17548.27539062,0,0,0
1314364079.16152239,0.00006019,0.00005818,-17549.63085938,0,0,0
1314364079.21284604,0.00006019,0.00005818,-17550.71679688,0,0,0
1314364079.26062703,0.00006016,0.00005824,-17552.07226562,0,0,0
1314364079.31347942,0.00006019,0.00005818,-17553.42773438,0,0,0
1314364079.36161900,0.00006016,0.00005824,-17554.78320312,0,0,0
1314364079.41260576,0.00006018,0.00005818,-17556.13867188,0,0,0
1314364079.46145296,0.00006016,0.00005824,-17557.49414062,0,0,0
1314364079.51251101,0.00006018,0.00005817,-17558.84960938,0,0,0
1314364079.56149077,0.00006015,0.00005824,-17560.20507812,0,0,0
1314364079.62080073,0.00006018,0.00005817,-17561.56250000,0,0,0
1314364079.66151237,0.00006018,0.00005817,-17563.18945312,0,0,0
1314364079.71745420,0.00006018,0.00005817,-17564.27343750,0,0,0
1314364079.76085186,0.00006015,0.00005824,-17565.62890625,0,0,0
1314364079.81349516,0.00006017,0.00005817,-17566.98437500,0,0,0
1314364079.86149716,0.00006015,0.00005823,-17568.34179688,0,0,0
1314364079.91261911,0.00006017,0.00005817,-17569.69726562,0,0,0
1314364079.96150374,0.00006014,0.00005823,-17571.05273438,0,0,0
1314364080.01289845,0.00006017,0.00005817,-17572.40820312,0,0,0
1314364080.06083465,0.00006014,0.00005823,-17573.76562500,0,0,0
1314364080.12145400,0.00006017,0.00005817,-17575.12109375,0,0,0
1314364080.16156697,0.00006017,0.00005816,-17576.74804688,0,0,0
1314364080.21266055,0.00006017,0.00005816,-17577.83398438,0,0,0
1314364080.27283025,0.00006014,0.00005823,-17579.18945312,0,0,0
1314364080.31360126,0.00006013,0.00005823,-17580.81640625,0,0,0
1314364080.36149645,0.00006013,0.00005823,-17581.90234375,0,0,0
1314364080.41258430,0.00006016,0.00005816,-17583.25781250,0,0,0
1314364080.46076894,0.00006013,0.00005822,-17584.61328125,0,0,0
1314364080.51072001,0.00006016,0.00005816,-17585.97070312,0,0,0
1314364080.56046891,0.00006013,0.00005822,-17587.32617188,0,0,0
1314364080.62144852,0.00006016,0.00005816,-17588.68359375,0,0,0
1314364080.67288828,0.00006016,0.00005816,-17590.31054688,0,0,0
1314364080.71361017,0.00006012,0.00005822,-17591.66601562,0,0,0
1314364080.76151180,0.00006012,0.00005822,-17592.75195312,0,0,0
1314364080.81287384,0.00006015,0.00005815,-17594.10937500,0,0,0
1314364080.86048937,0.00006012,0.00005822,-17595.46484375,0,0,0
1314364080.91346955,0.00006015,0.00005815,-17596.82226562,0,0,0
1314364080.96049523,0.00006012,0.00005822,-17598.17773438,0,0,0
1314364081.01390100,0.00006015,0.00005815,-17599.53515625,0,0,0
1314364081.07348680,0.00006012,0.00005821,-17600.89062500,0,0,0
1314364081.11351323,0.00006012,0.00005821,-17602.51757812,0,0,0
1314364081.17349076,0.00006011,0.00005821,-17603.60351562,0,0,0
1314364081.22194386,0.00006011,0.00005821,-17605.23046875,0,0,0
1314364081.26159906,0.00006014,0.00005815,-17606.58789062,0,0,0
1314364081.31286669,0.00006014,0.00005815,-17607.67382812,0,0,0
1314364081.36075926,0.00006011,0.00005821,-17609.02929688,0,0,0
1314364081.41246629,0.00006014,0.00005814,-17610.38671875,0,0,0
1314364081.46146965,0.00006011,0.00005821,-17611.74414062,0,0,0
1314364081.51249909,0.00006014,0.00005814,-17613.09960938,0,0,0
1314364081.56149507,0.00006011,0.00005821,-17614.45703125,0,0,0
1314364081.62152433,0.00006014,0.00005814,-17615.81445312,0,0,0
1314364081.66157246,0.00006014,0.00005814,-17617.44140625,0,0,0
1314364081.71346283,0.00006013,0.00005814,-17618.52734375,0,0,0
1314364081.76171684,0.00006010,0.00005820,-17619.88281250,0,0,0
1314364081.81260443,0.00006013,0.00005814,-17621.24023438,0,0,0
1314364081.87277031,0.00006010,0.00005820,-17622.59765625,0,0,0
1314364081.92165852,0.00006010,0.00005820,-17624.22460938,0,0,0
1314364081.96151257,0.00006013,0.00005814,-17625.58203125,0,0,0
1314364082.01349688,0.00006013,0.00005813,-17626.66796875,0,0,0
1314364082.06062174,0.00006009,0.00005820,-17628.02539062,0,0,0
1314364082.11346841,0.00006013,0.00005813,-17629.38281250,0,0,0
1314364082.16158581,0.00006009,0.00005820,-17630.73828125,0,0,0
1314364082.21347022,0.00006012,0.00005813,-17632.09570312,0,0,0
1314364082.27246594,0.00006009,0.00005819,-17633.45312500,0,0,0
1314364082.31365871,0.00006009,0.00005819,-17635.08203125,0,0,0
1314364082.36146832,0.00006009,0.00005819,-17636.16796875,0,0,0
1314364082.41269231,0.00006012,0.00005813,-17637.52539062,0,0,0
1314364082.46144843,0.00006008,0.00005819,-17638.88085938,0,0,0
1314364082.52151299,0.00006012,0.00005813,-17640.23828125,0,0,0
1314364082.56063867,0.00006012,0.00005812,-17641.86718750,0,0,0
1314364082.61245608,0.00006012,0.00005812,-17642.95312500,0,0,0
1314364082.67273903,0.00006008,0.00005819,-17644.31054688,0,0,0
1314364082.71359491,0.00006008,0.00005819,-17645.93945312,0,0,0
1314364082.76152110,0.00006008,0.00005819,-17647.02539062,0,0,0
1314364082.82080340,0.00006011,0.00005812,-17648.38281250,0,0,0
1314364082.86153293,0.00006011,0.00005812,-17650.01171875,0,0,0
1314364082.91289091,0.00006011,0.00005812,-17651.09765625,0,0,0
1314364082.96070266,0.00006007,0.00005818,-17652.45507812,0,0,0
1314364083.01284075,0.00006011,0.00005812,-17653.81250000,0,0,0
1314364083.06446075,0.00006007,0.00005818,-17655.16992188,0,0,0
1314364083.11262417,0.00006011,0.00005811,-17656.52734375,0,0,0
1314364083.16146350,0.00006007,0.00005818,-17657.88476562,0,0,0
1314364083.21246171,0.00006010,0.00005811,-17659.24218750,0,0,0
1314364083.26047969,0.00006007,0.00005818,-17660.59960938,0,0,0
1314364083.32152677,0.00006010,0.00005811,-17661.95898438,0,0,0
1314364083.36067939,0.00006010,0.00005811,-17663.58789062,0,0,0
1314364083.41255116,0.00006010,0.00005811,-17664.67382812,0,0,0
1314364083.47350240,0.00006006,0.00005817,-17666.03125000,0,0,0
1314364083.50969720,0.00006006,0.00005817,-17667.66015625,0,0,0
1314364083.56147170,0.00006006,0.00005817,-17668.74609375,0,0,0
1314364083.62168002,0.00006010,0.00005811,-17670.10546875,0,0,0
1314364083.66080141,0.00006009,0.00005810,-17671.73437500,0,0,0
1314364083.71345568,0.00006009,0.00005810,-17672.82031250,0,0,0
1314364083.76151752,0.00006005,0.00005817,-17674.17773438,0,0,0
1314364083.82151222,0.00006009,0.00005810,-17675.53515625,0,0,0
1314364083.86147738,0.00006009,0.00005810,-17677.16601562,0,0,0
1314364083.91249943,0.00006009,0.00005810,-17678.25195312,0,0,0
1314364083.96145654,0.00006005,0.00005816,-17679.60937500,0,0,0
1314364084.01269984,0.00006009,0.00005810,-17680.96679688,0,0,0
1314364084.06149697,0.00006005,0.00005816,-17682.32617188,0,0,0
1314364084.11357474,0.00006009,0.00005810,-17683.68359375,0,0,0
1314364084.16160941,0.00006004,0.00005816,-17685.04101562,0,0,0
1314364084.21275592,0.00006008,0.00005809,-17686.40039062,0,0,0
1314364084.27271128,0.00006004,0.00005816,-17687.75781250,0,0,0
1314364084.31367040,0.00006004,0.00005815,-17689.38671875,0,0,0
1314364084.36146045,0.00006004,0.00005815,-17690.47460938,0,0,0
1314364084.42155099,0.00006008,0.00005809,-17691.83203125,0,0,0
1314364084.46206379,0.00006008,0.00005809,-17693.46289062,0,0,0
1314364084.51345110,0.00006008,0.00005809,-17694.54882812,0,0,0
1314364084.56066823,0.00006003,0.00005815,-17695.90625000,0,0,0
1314364084.61275840,0.00006008,0.00005809,-17697.26562500,0,0,0
1314364084.66050196,0.00006003,0.00005815,-17698.62304688,0,0,0
1314364084.72049618,0.00006007,0.00005808,-17699.98242188,0,0,0
1314364084.76147175,0.00006007,0.00005808,-17701.61132812,0,0,0
1314364084.82157278,0.00006007,0.00005808,-17702.69921875,0,0,0
1314364084.86066961,0.00006007,0.00005808,-17704.32812500,0,0,0
1314364084.91344857,0.00006007,0.00005808,-17705.41601562,0,0,0
1314364084.96269894,0.00006003,0.00005814,-17706.77343750,0,0,0
1314364085.01264477,0.00006007,0.00005808,-17708.13281250,0,0,0
1314364085.06148887,0.00006002,0.00005814,-17709.49023438,0,0,0
1314364085.11268544,0.00006007,0.00005808,-17710.84960938,0,0,0
1314364085.16174388,0.00006002,0.00005814,-17712.20898438,0,0,0
1314364085.21264386,0.00006006,0.00005807,-17713.56640625,0,0,0
1314364085.26067948,0.00006002,0.00005814,-17714.92578125,0,0,0
1314364085.31350946,0.00006006,0.00005807,-17716.28515625,0,0,0
1314364085.36062694,0.00006002,0.00005813,-17717.64257812,0,0,0
1314364085.41248965,0.00006006,0.00005807,-17719.00195312,0,0,0
1314364085.47268677,0.00006001,0.00005813,-17720.35937500,0,0,0
1314364085.51362205,0.00006001,0.00005813,-17721.99023438,0,0,0
1314364085.56146193,0.00006001,0.00005813,-17723.07812500,0,0,0
1314364085.62094378,0.00006006,0.00005807,-17724.43750000,0,0,0
1314364085.66209769,0.00006005,0.00005806,-17726.06640625,0,0,0
1314364085.71346784,0.00006005,0.00005806,-17727.15429688,0,0,0
1314364085.76065326,0.00006001,0.00005812,-17728.51171875,0,0,0
1314364085.82052112,0.00006005,0.00005806,-17729.87109375,0,0,0
1314364085.87260604,0.00006005,0.00005806,-17731.50195312,0,0,0
1314364085.91363382,0.00006000,0.00005812,-17732.86132812,0,0,0
1314364085.96147442,0.00006000,0.00005812,-17733.94726562,0,0,0
1314364086.01346326,0.00006005,0.00005806,-17735.30664062,0,0,0
1314364086.06058764,0.00006000,0.00005812,-17736.66601562,0,0,0
1314364086.11429214,0.00006005,0.00005805,-17738.02539062,0,0,0
1314364086.16146684,0.00006000,0.00005812,-17739.38476562,0,0,0
1314364086.21258497,0.00006004,0.00005805,-17740.74414062,0,0,0
1314364086.26148653,0.00006000,0.00005811,-17742.10156250,0,0,0
1314364086.31251240,0.00006004,0.00005805,-17743.46093750,0,0,0
1314364086.36144543,0.00005999,0.00005811,-17744.82031250,0,0,0
1314364086.41258693,0.00006004,0.00005805,-17746.17968750,0,0,0
1314364086.46488523,0.00005999,0.00005811,-17747.53906250,0,0,0
1314364086.51345801,0.00006004,0.00005805,-17748.89843750,0,0,0
1314364086.56449080,0.00005999,0.00005811,-17750.25781250,0,0,0
1314364086.61257744,0.00006004,0.00005804,-17751.61718750,0,0,0
1314364086.67348361,0.00005999,0.00005811,-17752.97656250,0,0,0
1314364086.71357369,0.00005999,0.00005810,-17754.60742188,0,0,0
1314364086.76144886,0.00005999,0.00005810,-17755.69531250,0,0,0
1314364086.82174087,0.00006003,0.00005804,-17757.05468750,0,0,0
1314364086.86060786,0.00006003,0.00005804,-17758.68554688,0,0,0
1314364086.92149043,0.00006003,0.00005804,-17759.77343750,0,0,0
1314364086.96058416,0.00006003,0.00005804,-17761.40429688,0,0,0
1314364087.01256537,0.00006003,0.00005804,-17762.49218750,0,0,0
1314364087.06147647,0.00005998,0.00005810,-17763.85156250,0,0,0
1314364087.12105584,0.00006003,0.00005803,-17765.21093750,0,0,0
1314364087.16147327,0.00006003,0.00005803,-17766.84179688,0,0,0
1314364087.22151875,0.00006003,0.00005803,-17767.92968750,0,0,0
